Location: Wayah Bald
(35.1806°N, 83.5603°W)
Time: 06:06:46
(UTC-04:00)

Daily predictions for brighter satellites

Satellite Brightness Start Highest point End
(mag) Time Altitude Azimuth Time Altitude Azimuth Time Altitude Azimuth
FENGYUN 3A 3.7 20:33:11 10° SSE 20:38:31 83° ENE 20:43:54 10° N
Cosmos 1733 Rocket 4.5 20:37:06 10° NNE 20:40:31 21° ENE 20:43:55 10° SE
USA 267 3.7 20:38:56 10° NE 20:45:27 70° NW 20:51:57 10° SW
Nadezhda 4 Rocket 4.3 20:40:17 10° N 20:46:33 74° W 20:52:51 10° S
Cosmos 1869 Rocket 4.1 20:51:27 10° NNW 20:55:53 63° W 21:00:16 10° S
Cosmos 1634 Rocket 4.1 20:50:47 10° S 20:57:05 86° E 21:03:26 10° N
Cosmos 2263 Rocket 2.8 20:55:02 10° N 21:00:14 39° ENE 21:05:10 11° SE
Cosmos 1092 Rocket 4.2 20:54:02 10° N 21:00:24 82° W 21:06:44 10° S
Spot 2 Rocket 3.5 20:56:13 10° SSE 21:01:17 74° ENE 21:06:22 10° N
Cosmos 1503 Rocket 4.0 20:59:08 10° NNW 21:04:23 74° ENE 21:09:32 10° SSE
USA 186 1.8 21:02:56 10° SSE 21:05:35 44° ENE 21:08:24 10° N
Cosmos 1939 Rocket 4.2 21:03:24 13° ESE 21:05:59 22° ENE 21:09:07 10° NNE
Resurs 1-3 3.6 21:02:51 10° SSE 21:07:14 82° ENE 21:11:38 10° N
Cosmos 2322 Rocket 2.8 21:03:16 10° SSW 21:08:47 62° WNW 21:14:22 10° NNE
Cosmos 1354 Rocket 4.0 21:05:38 10° NNW 21:10:55 87° ENE 21:16:10 10° SSE
Atlas Centaur 2 2.8 21:06:37 10° WSW 21:12:42 56° S 21:19:23 13° E
Cosmos 220 Rocket 4.4 21:11:21 10° NNW 21:15:47 68° WSW 21:20:10 10° S
H-2A R/B 3.8 21:12:18 10° S 21:16:03 47° W 21:19:48 10° NNW
Cosmos 2360 Rocket 2.3 21:10:59 10° S 21:16:28 56° ESE 21:22:00 10° NNE
USA 234 4.4 21:12:10 10° E 21:17:43 31° NNE 21:23:16 10° NNW
COSMOS 2428 3.7 21:14:23 10° SSE 21:18:48 24° ESE 21:23:16 10° NE
Cosmos 1825 2.1 21:15:10 10° N 21:18:59 88° E 21:22:47 10° S
Intercosmos 25 Rocket 3.1 21:16:47 10° S 21:19:56 80° W 21:23:54 10° N
Envisat 3.3 21:17:09 13° SE 21:21:30 49° ENE 21:26:23 10° N
Cosmos 1655 Rocket 4.0 21:16:20 10° N 21:22:43 70° E 21:29:00 10° SSE
CZ-4B DEB 3.4 21:22:32 25° ESE 21:23:39 34° ENE 21:26:26 10° N
Meteor 1-29 3.0 21:21:19 10° NNE 21:24:42 52° E 21:28:03 10° S
Cosmos 2242 Rocket 4.3 21:21:19 10° SSW 21:25:46 58° W 21:30:11 10° N
Lacrosse 4 Rocket 2.1 21:22:54 10° NW 21:27:11 56° WSW 21:31:26 10° S
Cosmos 1408 2.9 21:24:00 10° NNW 21:27:39 65° W 21:31:14 10° S
Cosmos 1867 4.3 21:22:51 10° NNW 21:27:54 37° NE 21:30:54 21° ESE
Helios 1B rocket 2.3 21:24:24 10° NNE 21:28:30 80° E 21:32:36 10° S
Milstar 3 3.5 21:21:12 10° W 21:29:31 45° SSW 21:33:52 20° SE
CZ-4B DEB 4.5 21:27:23 19° SSE 21:29:48 66° ENE 21:33:20 10° N
ATLAS 5 CENTAUR R/B 2.8 21:25:40 10° NNW 21:31:36 51° NE 21:35:39 22° ESE
Cosmos 2279 Rocket 4.1 21:27:15 10° S 21:33:29 84° W 21:39:44 10° N
Cosmos 2322 3.6 21:28:30 10° S 21:34:09 68° ESE 21:39:49 10° NNE
SEDSat Delta rocket 3.6 21:29:49 10° W 21:34:44 58° S 21:37:59 24° ESE
SL-16 R/B 4.0 21:34:31 10° SW 21:39:38 34° WNW 21:44:47 10° N
ERS-1 Rocket 3.6 21:42:02 27° ESE 21:43:53 36° ENE 21:48:28 10° N
Sakura Rocket 3.6 21:42:40 10° SW 21:46:01 31° S 21:46:24 30° SSE
Resurs 01 Rocket 3.6 21:44:29 10° SSW 21:48:18 28° W 21:52:07 10° NW
Cosmos 1428 Rocket 4.5 21:43:34 10° N 21:49:41 83° W 21:55:34 11° S
Centaur AC-42 4.1 21:29:52 10° W 21:49:53 31° SSW 21:53:32 20° SSE
Cosmos 2333 4.4 21:52:02 16° S 21:56:24 46° ESE 22:01:52 10° NE
NOSS 3-1 (C) 3.7 21:54:38 27° SSE 21:56:53 37° ESE 22:02:25 10° NE
Cosmos 2333 Rocket 3.7 22:00:04 20° ENE 22:00:04 20° ENE 22:02:42 10° NE
YAOGAN 6 2.6 21:58:12 54° E 21:58:25 55° ENE 22:01:58 10° N
ORS 1 (USA 231) 4.5 21:55:49 10° WNW 21:58:49 80° NNW 21:58:49 80° NNW
SPOT 5 4.0 21:59:59 26° ENE 22:00:10 26° ENE 22:04:00 10° NNE
Cosmos 1844 Rocket 3.8 21:57:00 10° N 22:01:41 27° ENE 22:02:44 25° ENE
Cosmos 1908 Rocket 3.4 21:57:23 10° N 22:01:44 76° E 22:02:58 45° SSE
Cosmos 2278 Rocket 4.3 22:00:38 10° NNE 22:02:32 12° NE 22:03:38 11° ENE
USA 229 DEB 3.8 21:56:04 10° SW 22:02:52 77° WNW 22:09:49 10° NNE
USA 229 3.8 21:56:11 10° SW 22:02:59 78° WNW 22:09:56 10° NNE
OAO 3 Rocket 3.3 22:01:49 10° W 22:06:38 60° SSW 22:07:39 49° SSE
Sich 1 Rocket 3.5 22:03:40 10° N 22:08:11 90° ESE 22:09:37 44° S
Meteor 2-10 Rocket 4.3 22:07:22 10° SSW 22:13:05 60° W 22:18:49 10° N
NOSS 3-1 (A) 4.2 22:15:19 30° ENE 22:15:19 30° ENE 22:19:04 10° NE
Cosmos 1782 Rocket 3.5 22:12:02 10° N 22:16:22 62° E 22:16:24 62° E
Cosmos 2219 Rocket 2.5 22:20:01 45° E 22:20:01 45° E 22:24:54 10° NE
Cosmos 1777 Rocket 4.1 22:16:12 10° N 22:21:21 53° ENE 22:21:49 51° E
Okean 1-7 2.9 22:21:00 73° SSE 22:21:23 83° E 22:25:48 10° N
USA 245 4.5 22:21:27 45° E 22:21:52 46° ENE 22:26:36 10° N
Cosmos 1782 4.0 22:30:21 32° NNE 22:30:21 32° NNE 22:32:42 10° NNE
Okean 2 Rocket 3.3 22:26:58 10° N 22:30:55 59° NE 22:30:55 59° NE
Nimbus 7 Rocket 4.3 22:36:52 10° NNE 22:42:49 72° ESE 22:43:21 67° SE
Terra 3.7 22:45:02 19° NE 22:45:02 19° NE 22:47:10 10° NNE
Cosmos 2263 Rocket 4.0 22:39:31 10° NW 22:43:51 24° WSW 22:46:54 15° SW
Cosmos 1417 Rocket 4.4 22:58:13 74° E 22:58:13 74° E 23:04:30 10° N
MetOp-B 4.4 22:59:17 59° WSW 22:59:35 60° W 23:04:53 10° NNW
USA 234 3.1 22:59:28 69° S 23:00:16 78° SW 23:06:50 10° NW
Atlas Centaur 2 2.9 22:55:08 10° W 23:02:01 58° S 23:02:01 58° S
COSMOS 2428 3.9 22:57:28 10° SW 23:02:46 40° WNW 23:08:07 10° N
H-2A R/B 2.6 23:09:10 49° N 23:09:10 49° N 23:12:47 10° N
MOS 1-B Rocket 3.9 23:09:36 71° WSW 23:09:43 71° WSW 23:15:21 10° NNW
Cosmos 1980 4.4 23:13:33 44° NNE 23:13:33 44° NNE 23:17:20 10° NNE
Meteor 1-11 Rocket 4.4 23:09:37 10° N 23:13:39 45° NNE 23:13:39 45° NNE
NOSS 0 Rocket 4.0 23:16:18 73° N 23:16:18 73° N 23:21:53 10° NNE
ATLAS 5 CENTAUR R/B 3.9 23:11:00 10° WNW 23:16:07 27° WSW 23:17:14 25° SW
Cosmos 1844 4.0 23:11:46 10° NNW 23:16:28 63° NNW 23:16:28 63° NNW
SL-16 R/B 4.4 23:22:16 13° NE 23:22:16 13° NE 23:23:00 10° NE
ARGOS 3.8 23:18:59 50° W 23:18:59 50° W 23:23:50 10° NNW
SeaSat 1 3.4 23:24:45 46° NNW 23:24:45 46° NNW 23:28:11 10° NNW
H-2A R/B 4.1 23:31:00 24° N 23:31:00 24° N 23:32:46 10° N
Cosmos 2237 Rocket 3.1 23:40:20 45° N 23:40:20 45° N 23:44:27 10° NNE
Cosmos 1553 Rocket 4.4 23:41:44 58° WNW 23:41:44 58° WNW 23:47:22 10° N
Cosmos 2333 Rocket 3.2 23:41:58 42° WNW 23:42:11 42° WNW 23:47:39 10° N
Cosmos 1844 Rocket 4.0 23:40:32 10° NW 23:44:25 32° WNW 23:44:25 32° WNW
Cosmos 2278 Rocket 3.2 23:41:44 10° NNW 23:45:29 43° NNW 23:45:29 43° NNW
